Miscellaneous Local Product
Issued by NWS Hastings, NE

Home | Current Version | Previous Version | Graphics & Text | Print | Product List | Glossary On
Versions: 1 2 3 4 5 6 7 8 9 10 11 12 13 14 15 16 17 18 19 20 21 22 23 24 25 26 27 28 29 30 31 32 33 34 35 36 37 38 39 40 41 42 43 44 45 46 47 48 49 50
548
AXUS43 KGID 270902
MISGRI

GID CWA HOURLY WEATHER ROUNDUP
NATIONAL WEATHER SERVICE HASTINGS NE
400 AM CDT MON MAR 27 2017

NOTE: "FAIR" INDICATES FEW OR NO CLOUDS BELOW 12,000 FEET WITH NO
SIGNIFICANT WEATHER AND/OR OBSTRUCTIONS TO VISIBILITY.

...SOUTH CENTRAL NEBRASKA...

CITY           SKY/WX    TMP DP  RH WIND       PRES   REMARKS
GRAND ISLAND   CLOUDY    43  43 100 NE8       29.93F FOG
HASTINGS       CLOUDY    45  43  93 NE8       29.93F FOG
KEARNEY        CLOUDY    45  41  87 NE6       29.93S VSB 1
ORD            CLOUDY    44  40  85 VRB3      29.92F
YORK           CLOUDY    45  45 100 N10       29.94S FOG
AURORA         CLOUDY    43  43 100 N7        29.93F FOG
LEXINGTON        N/A     39  37  92 W3        29.92S FOG
HOLDREGE       FOG       36  35  96 N3        29.92S VSB 3/4
HEBRON         LGT RAIN  44  43  96 CALM      29.93S

...NEBRASKA PANHANDLE...

CITY           SKY/WX    TMP DP  RH WIND       PRES   REMARKS
CHADRON        FOG       34  33  96 S3        29.91F VSB 1/4
ALLIANCE       CLOUDY    26  24  92 W5        29.91F WCI  20
SCOTTSBLUFF    CLEAR     29  26  89 CALM      29.93F
SIDNEY         CLOUDY    28  26  92 NW8       29.93F WCI  20

...WESTERN AND NORTH CENTRAL NEBRASKA...

CITY           SKY/WX    TMP DP  RH WIND       PRES   REMARKS
VALENTINE      MOCLDY    29  27  92 W5        29.93F WCI  24
AINSWORTH      FOG       31  31 100 CALM      29.92F VSB 1/2
ONEILL         CLOUDY    42  40  93 NW5       29.94R
BROKEN BOW     HAZE      39  33  79 N6        29.92S VSB 1/4 WCI  35
IMPERIAL       CLEAR     37  34  89 W8        29.91F WCI  31
NORTH PLATTE   PTCLDY    37  36  96 E7        29.91F FOG     WCI  32
MCCOOK         CLEAR     35  35 100 SW5       29.93S WCI  31

...EASTERN NEBRASKA...

CITY           SKY/WX    TMP DP  RH WIND       PRES   REMARKS
NORFOLK        CLOUDY    42  40  92 CALM      29.94F
SO SIOUX CITY  CLOUDY    43  40  89 N3        29.95F
TEKAMAH        CLOUDY    44  40  85 N6        29.95R
COLUMBUS       CLOUDY    43  39  87 N5        29.96S
ALBION         CLOUDY    45  42  90 NE3       29.94F FOG
OMAHA EPPLEY   CLOUDY    46  41  82 N3        29.93S
OFFUTT AFB     CLOUDY    45  42  87 NE3       29.92F
MILLARD        CLOUDY    48  44  87 N5        29.93F
LINCOLN        CLOUDY    45  42  89 N8        29.94S
NEBRASKA CITY  CLOUDY    45  44  97 NE6       29.92F
BEATRICE       LGT RAIN  45  44  97 NE5       29.92S
FALLS CITY     CLOUDY    47  44  90 N8        29.88S

...NORTHERN KANSAS...

CITY           SKY/WX    TMP DP  RH WIND       PRES   REMARKS
GOODLAND       CLEAR     35  34  96 W9        29.92F WCI  28
HILL CITY      CLEAR     36  36 100 NW6       29.94S FOG     WCI  31
NORTON         FOG       34  30  86 NW8       29.93R VSB 1   WCI  27
PHILLIPSBURG   FOG       37  37 100 W6        29.93R VSB 0   WCI  33
HAYS             N/A     46  44  93 N5        29.92F
RUSSELL        CLOUDY    46  44  93 N7        29.91S
CONCORDIA      CLOUDY    45  45 100 N8        29.92S
SALINA         CLOUDY    48  46  93 N13       29.90S
TOPEKA         RAIN      46  46 100 N7        29.85S FOG



USA.gov is the U.S. government's official web portal to all federal, state and local government web resources and services.